Location: Wolf Creek Estates Observatory
(33.4774°N, 105.6743°W)
Time: 10:48:00
(UTC-06:00)

Tiangong 2 - Visible Passes

Search period start: 22 July 2018 00:00
Search period end: 01 August 2018 00:00
Orbit: 386 x 394 km, 42.8° (Epoch: 22 July)

Date Brightness Start Highest point End Pass type
(mag) Time Alt. Az. Time Alt. Az. Time Alt. Az.
22 Jul 3.1 20:51:55 10° NW 20:54:31 22° NNE 20:57:05 10° ENE visible
22 Jul 3.1 22:28:27 10° WNW 22:30:06 28° WNW 22:30:06 28° WNW visible
23 Jul 1.4 21:30:45 10° NW 21:33:54 56° NNE 21:34:52 37° E visible
24 Jul 2.3 20:33:09 10° NW 20:36:05 33° NNE 20:39:01 10° E visible
24 Jul 2.9 22:10:04 10° WNW 22:12:00 26° WSW 22:12:00 26° WSW visible
25 Jul 1.2 21:12:08 10° WNW 21:15:18 66° SSW 21:16:51 26° SE visible
26 Jul 3.4 21:52:14 10° WSW 21:54:06 15° SW 21:54:06 15° SW visible
27 Jul 2.6 20:53:45 10° W 20:56:33 29° SW 20:59:04 12° SSE visible
29 Jul 3.7 20:36:04 10° WSW 20:37:42 13° SW 20:39:20 10° S visible
